Preview of NWS' New Version of Forecast
This preview is not operational and should not be used for support decisions.

Regional Weather Roundup (RWR)

Issued by National Weather Service (NWS)

                            
000
ASUS45 KBOI 181910
RWRID 

IDAHO REGIONAL WEATHER ROUNDUP
NATIONAL WEATHER SERVICE BOISE ID
100 PM MDT THU APR 18 2019

NOTE: "FAIR" INDICATES FEW OR NO CLOUDS BELOW 12000 FEET
WITH NO SIGNIFICANT WEATHER AND/OR OBSTRUCTIONS TO VISIBILITY

IDZ012-014-182000-
SOUTHWEST IDAHO

  
CITY           SKY/WX    TMP DP  RH WIND       PRES   REMARKS
BOISE          SUNNY     66  39  37 N5        30.32F                  
CALDWELL       SUNNY     65  42  43 CALM      30.32F                  
MOUNTAIN HOME  SUNNY     66  38  35 NW6       30.32F                  
$$

IDZ016-017-182000-
SOUTHCENTRAL IDAHO

  
CITY           SKY/WX    TMP DP  RH WIND       PRES   REMARKS
BURLEY         SUNNY     61  35  37 W10       30.34F                  
JEROME         SUNNY     58  37  45 SW12      30.35F                  
TWIN FALLS     SUNNY     61  36  39 W9        30.35F                  
$$

IDZ019>023-182000-
SOUTHEAST IDAHO

  
CITY           SKY/WX    TMP DP  RH WIND       PRES   REMARKS
IDAHO FALLS    SUNNY     57  31  37 SW12      30.36F                  
POCATELLO      SUNNY     59  35  40 W16       30.37F                  
REXBURG        SUNNY     55  32  41 W12       30.35F                  
$$

IDZ006-010-011-018-031-032-182000-
CENTRAL IDAHO MOUNTAINS

  
CITY           SKY/WX    TMP DP  RH WIND       PRES   REMARKS
MCCALL         SUNNY     49  27  42 MISG      30.33F                  
STANLEY          N/A     47  23  38 N3        30.38S                  
SALMON         SUNNY     56  31  38 VRB3      30.33F                  
CHALLIS        SUNNY     61  28  28 VRB5      30.31F                  
$$

IDZ002-004-006-007-026-182000-
NORTHERN IDAHO

  
CITY           SKY/WX    TMP DP  RH WIND       PRES   REMARKS
LEWISTON       MOSUNNY   62  44  51 CALM      30.25F                  
LOWELL           N/A     63  43  48 VRB3      30.27F                  
COEUR D'ALENE  CLOUDY    56  40  55 NW6       30.26S                  
MULLAN PASS    CLOUDY    44  30  57 SW6       30.28F                  
$$